Location: Lafig�re
(44.4503°N, 4.0357°E)
Time: 16:58:19
(UTC+00:00)

Cosmos 2251 Rocket - Pass Details

Date: 24 September 2020
Orbit: 764 x 792 km, 74.0° (Epoch: 20 October)

Event Time Altitude Azimuth Distance (km) Brightness Sun altitude
Rises 20:07:08 0° 342° (NNW) 3,297 7.4 -26.7°
Reaches altitude 10° 20:09:36 10° 347° (NNW) 2,361 6.5 -27.1°
Enters shadow 20:13:44 45° 23° (NNE) 1,062 4.2 -27.7°
